Regional Weather Roundup
Issued by NWS

Home | Current Version | Previous Version | Text Only | Print | Product List | Glossary Off
Versions: 1 2 3 4 5 6 7 8 9 10 11 12 13 14 15 16 17 18 19 20 21 22 23 24 25 26 27 28 29 30 31 32 33 34 35 36 37 38 39 40 41 42 43 44 45 46 47 48 49 50

000
ASUS45 KSLC 172310
RWRUT

UTAH REGIONAL WEATHER ROUNDUP
NATIONAL WEATHER SERVICE SALT LAKE CITY UT
500 PM MDT WED SEP 17 2014

UTZ001>011-023>025-180000-

NORTHERN UTAH

CITY           SKY/WX    TMP DP  RH WIND       PRES   REMARKS
HILL AFB       SUNNY     89  43  20 VRB3      29.94F
LOGAN          SUNNY     90  45  21 SW3       29.91F
OGDEN          SUNNY     91  41  17 W6        29.91F
PROVO AIRPORT  MOSUNNY   90  39  17 VRB5      29.92F
SALT LAKE CITY MOSUNNY   94  38  14 VRB6      29.87F
VERNAL         MOSUNNY   80  43  26 E3        30.02F
WENDOVER       MOSUNNY   93  39  15 SE9       29.86F
HEBER CITY     SUNNY     90  32  12 SW8       29.99F
WEST JORDAN    SUNNY     91  36  14 E6        29.92F

$$

UTZ012>022-026-027-180000-

SOUTHERN UTAH

CITY           SKY/WX    TMP DP  RH WIND       PRES   REMARKS
BRYCE CANYON   MOSUNNY   71  50  47 E13       30.21R
CEDAR CITY     PTSUNNY   68  50  52 SE8       30.03F
MILFORD        MOSUNNY   91  42  18 SW15G23   29.93F
MOAB/CYNLANDS  SUNNY     90  38  16 VRB3      29.91F
PRICE          SUNNY     87  32  14 SW9       30.04F
ST GEORGE      CLOUDY    88  57  35 SW8       29.86R THUNDER
KANAB            N/A     86  46  25 N9        30.01F

$$

REGIONAL REPORTS     COLORADO/ARIZONA

CITY           SKY/WX    TMP DP  RH WIND       PRES   REMARKS
CRAIG, CO      MOSUNNY   78  41  26 W7        30.08F
GRAND JUNCTION SUNNY     87  39  18 W10       29.95F
RIFLE          SUNNY     87  33  14 CALM      30.00F
MONTROSE       SUNNY     86  35  16 NW8       30.03F
CORTEZ         LGT RAIN  60  54  80 SE16      30.16F
PAGE, AZ       PTSUNNY   84  54  35 S8        29.95F
GRAND CANYON   SUNNY     73  45  36 E12G18    30.13F
KINGMAN        CLOUDY    83  59  44 CALM      29.90F
FLAGSTAFF      PTSUNNY   67  53  61 E9        30.16F

$$

REGIONAL REPORTS    NEVADA/IDAHO/WYOMING

CITY           SKY/WX    TMP DP  RH WIND       PRES   REMARKS
LAS VEGAS, NV  MOSUNNY   95  54  25 S7        29.74F HX  93
ELY            MOSUNNY   85  38  18 S14       30.02F
ELKO           MOSUNNY   89  37  16 SW7       29.88F
POCATELLO, ID  MOSUNNY   93  39  15 VRB6      29.89F
BURLEY         MOSUNNY   88  45  22 VRB5      29.83F
EVANSTON, WY   PTSUNNY   77  34  21 S6        30.14F
ROCK SPRINGS   MOSUNNY   80  34  19 NW7       30.11F

$$


USA.gov is the U.S. government's official web portal to all federal, state and local government web resources and services.